Terminal Aerodrome Forecast
Issued by NWS

Home | Current Version | Previous Version | Text Only | Print | Product List | Glossary On
Versions: 1 2 3 4 5 6 7 8 9 10 11 12 13 14 15 16 17
000
FTUS45 KBYZ 141135
TAFLVM
TAF
KLVM 141135Z 1412/1512 32012KT P6SM OVC050
     FM141800 26020G40KT P6SM SCT080
     FM150400 24035G50KT P6SM BKN100=

USA.gov is the U.S. government's official web portal to all federal, state and local government web resources and services.